Stations météo

Publicité
Cherbourg, France (7024): Température de l'air & dewpoint: 12.08.2017 18:00:00 - 18.08.2017 18:00:00 (CEST)Cherbourg, France (7024): Température de l'air 5cm: 12.08.2017 18:00:00 - 18.08.2017 18:00:00 (CEST)Cherbourg, France (7024): Température de l'air -20cm & Température de l'air -100cm: 12.08.2017 18:00:00 - 18.08.2017 18:00:00 (CEST)Cherbourg, France (7024): Vitesse du vent & gusts: 12.08.2017 18:00:00 - 18.08.2017 18:00:00 (CEST)Cherbourg, France (7024): Direction du vent: 12.08.2017 18:00:00 - 18.08.2017 18:00:00 (CEST)Cherbourg, France (7024): reduced air pressure: 12.08.2017 18:00:00 - 18.08.2017 18:00:00 (CEST)Cherbourg, France (7024): visibility: 12.08.2017 18:00:00 - 18.08.2017 18:00:00 (CEST)Cherbourg, France (7024): Ensoleillement: 12.08.2017 18:00:00 - 18.08.2017 18:00:00 (CEST)Cherbourg, France (7024): Quantités de précipitations: 12.08.2017 18:00:00 - 18.08.2017 18:00:00 (CEST)
Date & Time tt [°C] td [°C] tt 5cm [°C] tt -20cm [°C] tt -100cm [°C] ff [km/h] ff [knt] fx [km/h] fx [knt] dd ppp [hPa] vv [km] sd [min] rr [mm]
18.08.2017 18:00:00 16,5 10,3 17,6 16,9 16,0 39 21 62 33 WSW 1015,9 29 55 0,0
18.08.2017 17:00:00 16,3 11,4 14,7 16,8 16,0 30 16 46 25 WSW 1015,6 20 24 0,0
18.08.2017 16:00:00 15,6 9,9 14,9 16,8 16,0 31 17 56 30 WSW 1015,6 46 8 0,0
18.08.2017 15:00:00 16,9 11,8 15,6 16,8 16,0 36 19 55 30 WSW 1014,7 20 27 0,0
18.08.2017 14:00:00 18,0 11,1 19,3 16,8 16,0 31 17 54 29 WSW 1014,4 20 39 0,0
18.08.2017 13:00:00 18,9 12,6 21,1 16,8 16,0 29 15 46 25 WSW 1014,2 34 54 0,0
18.08.2017 12:00:00 17,6 11,8 18,8 16,8 16,0 25 14 40 22 W 1014,5 20 50 0,0
18.08.2017 11:00:00 17,2 13,1 17,1 16,8 16,0 23 12 36 20 WSW 1014,7 41 7 0,0
18.08.2017 10:00:00 16,3 13,2 14,4 16,9 16,0 21 11 37 20 WSW 1013,9 60 9 0,0
18.08.2017 09:00:00 16,1 13,9 15,1 16,9 16,0 18 10 29 16 WSW 1013,5 20 9 0,0
18.08.2017 08:00:00 15,4 13,8 14,2 17,0 16,0 18 10 29 16 SW 1013,2 20 0 0,0
18.08.2017 07:00:00 15,1 13,5 14,2 17,0 16,0 18 10 37 20 SW 1013,2 31 0 0,0
18.08.2017 06:00:00 16,1 14,5 15,4 17,0 16,0 18 10 45 25 SW 1013,0 31 0 0,0
18.08.2017 05:00:00 16,6 14,4 16,1 17,0 15,9 27 15 43 23 WSW 1013,2 40 0 0,0
18.08.2017 04:00:00 17,2 15,4 16,5 17,1 15,9 25 13 39 21 SW 1013,3 39 0 0,0
18.08.2017 03:00:00 17,0 15,7 16,4 17,1 16,0 20 11 36 19 SSW 1013,8 20 0 0,0
18.08.2017 02:00:00 16,9 15,8 16,2 17,1 15,9 19 10 29 15 SSW 1014,2 20 0 0,0
18.08.2017 01:00:00 16,5 15,5 15,3 17,2 15,9 16 8 24 13 SSW 1014,5 20 0 0,0
18.08.2017 00:00:00 16,1 15,1 15,1 17,2 15,9 14 8 25 14 SSW 1014,5 19 0 0,0
17.08.2017 23:00:00 16,0 15,0 15,2 17,2 15,9 11 6 21 12 SSW 1014,7 20 0 0,0
17.08.2017 22:00:00 16,5 14,7 15,5 17,2 15,9 14 8 22 12 SW 1015,0 35 0 0,0
17.08.2017 21:00:00 17,2 15,2 16,5 17,2 15,9 15 8 27 14 WSW 1014,8 37 42 0,0
17.08.2017 20:00:00 18,2 15,8 18,5 17,2 15,9 19 10 36 19 WSW 1015,0 44 33 0,0
17.08.2017 19:00:00 19,8 15,9 20,5 17,1 15,9 25 14 39 21 SSW 1014,8 60 49 0,0
17.08.2017 18:00:00 21,1 15,6 23,2 17,1 16,0 24 13 41 22 WSW 1014,8 60 54 0,0
17.08.2017 17:00:00 21,1 15,6 22,5 17,0 15,9 25 14 47 25 SW 1015,0 33 46 0,0
17.08.2017 16:00:00 20,9 15,4 25,5 16,9 15,9 29 16 43 23 SW 1015,1 34 60 0,0
17.08.2017 15:00:00 20,9 14,5 20,8 16,9 15,9 27 15 44 24 SW 1015,0 37 43 0,0
17.08.2017 14:00:00 19,4 15,1 20,9 16,8 15,9 27 15 43 23 SW 1015,2 20 33 0,0
17.08.2017 13:00:00 18,5 15,9 19,2 16,8 15,9 29 16 43 23 WSW 1015,1 20 7 0,0
17.08.2017 12:00:00 17,9 16,6 17,6 16,8 15,9 29 16 46 25 SW 1014,5 60 0 0,2
17.08.2017 11:00:00 17,4 16,8 17,3 16,8 15,9 29 16 46 25 WSW 1014,5 18 0 0,2
17.08.2017 10:00:00 17,8 17,3 17,6 16,8 15,9 26 14 45 25 WSW 1013,9 5 0 0,0
17.08.2017 09:00:00 17,9 17,4 17,7 16,8 15,9 22 12 41 22 SW 1013,3 1,9 0 0,2
17.08.2017 08:00:00 18,0 17,5 17,5 16,8 15,9 23 12 37 20 SSW 1013,1 3,5 0 0,4
17.08.2017 07:00:00 17,7 17,2 17,1 16,8 15,9 22 12 40 22 SSW 1012,8 3,2 0 0,6
17.08.2017 06:00:00 17,4 16,8 16,4 16,8 15,9 28 15 47 25 SSW 1012,8 16 0 0,0
17.08.2017 05:00:00 16,8 16,3 16,2 16,8 15,9 24 13 41 22 S 1012,9 9 0 1,4
17.08.2017 04:00:00 16,6 16,0 16,1 16,9 15,9 29 16 52 28 S 1013,6 12 0 0,2
17.08.2017 03:00:00 17,1 15,6 16,4 16,9 15,9 27 15 49 26 S 1013,8 19 0 0,0
17.08.2017 02:00:00 17,7 14,8 16,9 16,9 15,9 22 12 39 21 S 1014,8 60 0 0,0
17.08.2017 01:00:00 17,7 14,4 17,0 16,9 15,9 31 17 50 27 S 1015,5 20 0 0,0
17.08.2017 00:00:00 17,6 13,9 16,6 17,0 15,9 20 11 32 17 S 1016,2 60 0 0,0
16.08.2017 23:00:00 17,1 14,2 16,1 16,9 15,9 10 6 20 11 SSE 1016,9 60 0 0,0
16.08.2017 22:00:00 17,1 14,9 16,1 16,9 15,9 9 5 16 8 SE 1017,3 60 0 0,0
16.08.2017 21:00:00 18,3 14,2 16,9 16,9 15,9 8 4 19 10 SE 1017,6 60 35 0,0
16.08.2017 20:00:00 20,4 13,1 21,2 16,9 15,9 11 6 21 11 S 1017,9 59 52 0,0
16.08.2017 19:00:00 20,7 12,4 23,1 16,8 15,9 13 7 25 14 S 1018,5 57 57 0,0
16.08.2017 18:00:00 20,2 13,2 22,0 16,6 15,9 14 8 28 15 S 1019,0 60 32 0,0
16.08.2017 17:00:00 19,2 14,0 29,1 16,5 15,9 9 5 15 8 NNE 1019,2 60 24 0,0
16.08.2017 16:00:00 19,7 14,1 27,6 16,5 15,9 8 4 18 10 N 1019,9 60 36 0,0
16.08.2017 15:00:00 18,9 14,8 21,9 16,4 15,9 12 7 27 14 NNW 1020,7 59 13 0,0
16.08.2017 14:00:00 19,8 12,5 22,4 16,3 15,9 13 7 24 13 S 1019,8 60 48 0,0
16.08.2017 13:00:00 19,9 12,9 20,3 16,3 15,9 11 6 24 13 S 1020,0 60 35 0,0
16.08.2017 12:00:00 18,9 13,7 20,8 16,3 15,9 15 8 25 13 SSW 1021,1 35 53 0,0
16.08.2017 11:00:00 16,3 14,3 16,2 16,3 15,9 9 5 22 12 SSW 1021,4 55 29 0,0
16.08.2017 10:00:00 14,2 13,9 13,5 16,3 15,8 8 5 14 8 S 1021,6 10 0 0,0
16.08.2017 09:00:00 12,8 12,5 12,4 16,3 15,8 11 6 16 8 S 1021,4 1,1 0 0,0
16.08.2017 08:00:00 12,5 12,2 11,2 16,4 15,8 5 3 7 4 SSE 1021,2 9 0 0,0
16.08.2017 07:00:00 12,4 11,9 11,0 16,5 15,9 6 3 9 5 S 1020,8 13 0 0,2
16.08.2017 06:00:00 12,4 11,9 7,2 16,5 15,8 6 3 12 6 SSW 1020,9 19 0 0,0
16.08.2017 05:00:00 11,4 10,8 7,7 16,6 15,8 8 4 10 6 SSW 1020,9 15 0 0,0
16.08.2017 04:00:00 12,2 11,7 7,6 16,6 15,8 6 3 12 7 SW 1021,1 20 0 0,0
16.08.2017 03:00:00 11,5 10,9 7,1 16,7 15,8 7 4 14 7 W 1021,1 16 0 0,0
16.08.2017 02:00:00 12,5 12,0 10,1 16,8 15,8 10 5 16 9 W 1021,4 18 0 0,2
16.08.2017 01:00:00 12,4 11,9 9,9 16,9 15,8 10 6 17 9 W 1021,1 18 0 0,0
16.08.2017 00:00:00 12,0 11,2 9,6 16,9 15,8 9 5 16 8 W 1021,3 17 0 0,0
15.08.2017 23:00:00 12,8 12,0 11,0 16,9 15,8 11 6 16 9 W 1021,1 27 0 0,0
15.08.2017 22:00:00 13,3 12,0 11,7 16,9 15,8 13 7 18 10 W 1020,8 43 0 0,0
15.08.2017 21:00:00 14,6 12,1 13,5 16,9 15,8 11 6 23 12 WSW 1020,0 60 46 0,0
15.08.2017 20:00:00 16,6 13,7 19,5 16,9 15,8 14 8 29 16 W 1019,4 53 60 0,0
15.08.2017 19:00:00 17,0 13,9 21,7 16,8 15,8 18 10 30 16 WNW 1019,0 54 60 0,0
15.08.2017 18:00:00 17,7 13,6 23,5 16,7 15,8 19 10 28 15 W 1018,8 51 60 0,0
15.08.2017 17:00:00 17,6 13,7 22,8 16,6 15,8 18 10 34 19 WNW 1018,7 60 57 0,0
15.08.2017 16:00:00 17,3 13,8 19,5 16,5 15,8 23 13 35 19 W 1018,4 60 38 0,0
15.08.2017 15:00:00 18,1 14,0 23,7 16,5 15,8 19 10 27 15 W 1018,1 56 58 0,0
15.08.2017 14:00:00 17,3 15,1 20,6 16,4 15,8 18 10 27 15 W 1017,9 60 30 0,0
15.08.2017 13:00:00 17,7 15,0 20,3 16,4 15,8 17 9 30 16 W 1017,3 60 43 0,0
15.08.2017 12:00:00 17,0 15,0 19,3 16,4 15,8 21 12 30 16 W 1016,7 60 26 0,0
15.08.2017 11:00:00 16,6 15,1 18,8 16,4 15,8 12 7 23 12 WNW 1016,1 57 16 0,0
15.08.2017 10:00:00 17,2 15,9 16,9 16,4 15,8 14 8 22 12 W 1015,4 16 32 0,0
15.08.2017 09:00:00 16,3 15,7 15,9 16,4 15,8 9 5 18 10 WNW 1014,7 2,7 9 0,0
15.08.2017 08:00:00 15,8 15,2 14,4 16,4 15,8 8 4 16 9 NW 1013,8 6 0 0,0
15.08.2017 07:00:00 15,6 15,0 14,9 16,4 15,8 8 5 22 12 NW 1013,4 5 0 0,0
15.08.2017 06:00:00 15,9 15,4 14,9 16,5 15,8 12 7 22 12 NNW 1012,7 2,9 0 0,8
15.08.2017 05:00:00 15,7 14,7 14,8 16,5 15,8 0 0 18 10 N 1012,9 10 0 0,4
15.08.2017 04:00:00 15,6 14,5 14,4 16,5 15,8 3 2 12 7 WNW 1012,8 13 0 1,4
15.08.2017 03:00:00 16,8 14,1 14,7 16,5 15,8 9 5 15 8 ESE 1013,1 4,5 0 0,2
15.08.2017 02:00:00 16,3 12,8 12,0 16,6 15,8 7 4 12 7 ENE 1013,3 52 0 0,0
15.08.2017 01:00:00 15,9 12,3 12,7 16,6 15,8 7 4 12 6 E 1013,7 56 0 0,0
15.08.2017 00:00:00 16,0 12,4 12,6 16,6 15,8 8 4 11 6 E 1014,1 41 0 0,0
14.08.2017 23:00:00 15,9 13,2 13,8 16,6 15,8 6 3 11 6 E 1014,6 29 0 0,0
14.08.2017 22:00:00 16,2 13,5 15,0 16,6 15,8 8 4 13 7 E 1014,7 32 0 0,0
14.08.2017 21:00:00 17,1 13,0 15,8 16,6 15,8 6 4 13 7 E 1014,5 60 45 0,0
14.08.2017 20:00:00 18,9 12,9 19,8 16,5 15,8 6 4 16 9 E 1014,6 56 48 0,0
14.08.2017 19:00:00 19,1 13,9 20,5 16,4 15,8 9 5 15 8 ENE 1014,5 42 0 0,0
14.08.2017 18:00:00 19,5 13,2 21,2 16,3 15,7 5 3 16 9 NNW 1015,1 56 1 0,0
14.08.2017 17:00:00 19,0 13,8 20,1 16,2 15,8 11 6 24 13 WNW 1016,0 20 22 0,0
14.08.2017 16:00:00 21,2 14,1 25,7 16,1 15,7 9 5 21 12 SSE 1016,1 55 44 0,0
14.08.2017 15:00:00 21,1 12,8 26,0 16,0 15,8 13 7 26 14 ESE 1016,1 55 60 0,0
14.08.2017 14:00:00 21,2 12,9 25,3 15,9 15,8 13 7 24 13 E 1016,3 46 60 0,0
14.08.2017 13:00:00 20,6 11,5 24,6 15,8 15,7 14 8 22 12 SE 1017,0 44 55 0,0
14.08.2017 12:00:00 20,3 12,5 24,9 15,8 15,8 12 6 18 10 E 1017,3 60 60 0,0
14.08.2017 11:00:00 19,6 13,5 19,7 15,8 15,7 9 5 17 9 SE 1017,9 20 60 0,0
14.08.2017 10:00:00 16,9 12,8 15,4 15,8 15,8 8 4 14 8 SE 1018,5 55 41 0,0
14.08.2017 09:00:00 15,0 12,9 13,4 15,9 15,8 9 5 15 8 SE 1018,7 32 37 0,0
14.08.2017 08:00:00 13,5 12,9 11,1 15,9 15,8 9 5 13 7 SE 1018,6 16 51 0,0
14.08.2017 07:00:00 12,5 12,0 10,8 16,0 15,8 9 5 12 7 SE 1018,4 12 0 0,0
14.08.2017 06:00:00 12,5 12,2 10,1 16,0 15,8 10 5 12 7 SE 1018,8 6 0 0,0
14.08.2017 05:00:00 12,4 12,1 9,0 16,1 15,8 9 5 12 6 SE 1019,1 7 0 0,2
14.08.2017 04:00:00 11,9 11,3 9,5 16,1 15,8 7 4 11 6 SE 1019,7 11 0 0,0
14.08.2017 03:00:00 11,9 11,3 9,2 16,2 15,8 9 5 11 6 ESE 1020,0 16 0 0,0
14.08.2017 02:00:00 11,7 11,1 7,7 16,2 15,8 6 4 9 5 ESE 1020,6 20 0 0,0
14.08.2017 01:00:00 11,9 11,3 6,9 16,3 15,8 6 3 10 5 ESE 1020,9 19 0 0,0
14.08.2017 00:00:00 12,3 11,4 7,7 16,3 15,8 6 4 17 9 E 1021,3 20 0 0,0
13.08.2017 23:00:00 12,5 11,2 7,1 16,3 15,8 9 5 12 7 ENE 1021,6 20 0 0,0
13.08.2017 22:00:00 13,3 11,9 8,2 16,3 15,8 8 4 9 5 NE 1021,6 18 0 0,0
13.08.2017 21:00:00 15,4 12,9 15,4 16,3 15,8 3 2 10 5 N 1021,6 48 46 0,0
13.08.2017 20:00:00 16,0 13,3 17,3 16,2 15,8 7 4 16 9 NNW 1021,4 39 2 0,0
13.08.2017 19:00:00 16,2 13,5 18,0 16,2 15,8 8 5 16 9 NNW 1021,5 44 4 0,0
13.08.2017 18:00:00 16,8 13,3 19,3 16,2 15,8 5 3 14 7 N 1021,6 20 13 0,0
13.08.2017 17:00:00 16,3 13,4 18,5 16,1 15,8 8 5 16 8 W 1022,0 43 0 0,0
13.08.2017 16:00:00 16,3 13,4 18,5 16,0 15,8 7 4 17 9 WNW 1022,3 49 0 0,0
13.08.2017 15:00:00 16,8 13,5 20,5 16,0 15,8 7 4 16 9 NW 1022,3 46 0 0,0
13.08.2017 14:00:00 16,8 13,3 19,7 15,9 15,8 7 4 14 8 WNW 1022,4 54 0 0,0
13.08.2017 13:00:00 16,9 12,6 19,8 15,9 15,8 6 4 15 8 WNW 1022,5 57 15 0,0
13.08.2017 12:00:00 16,8 13,9 18,3 15,9 15,8 9 5 15 8 W 1022,4 48 0 0,0
13.08.2017 11:00:00 15,7 13,2 15,7 15,9 15,8 6 4 13 7 WNW 1022,4 20 0 0,0
13.08.2017 10:00:00 15,1 13,6 15,7 15,9 15,8 9 5 14 7 W 1022,1 36 0 0,0
13.08.2017 09:00:00 14,5 13,4 14,3 15,9 15,8 7 4 13 7 W 1021,8 20 1 0,0
13.08.2017 08:00:00 14,0 13,2 13,0 15,9 15,8 9 5 13 7 W 1021,6 20 0 0,0
13.08.2017 07:00:00 13,7 12,8 12,9 15,9 15,8 7 4 14 8 WSW 1021,3 20 0 0,0
13.08.2017 06:00:00 14,3 13,0 13,2 16,0 15,8 10 5 20 11 W 1021,3 32 0 0,0
13.08.2017 05:00:00 14,2 12,8 12,4 16,0 15,8 10 5 20 11 W 1021,2 39 0 0,2
13.08.2017 04:00:00 13,9 12,3 12,1 16,1 15,8 9 5 22 12 WNW 1021,1 43 0 0,0
13.08.2017 03:00:00 13,7 12,1 12,2 16,1 15,8 11 6 21 12 W 1021,1 35 0 0,0
13.08.2017 02:00:00 13,3 12,5 11,4 16,1 15,8 14 8 23 12 W 1021,3 20 0 0,0
13.08.2017 01:00:00 12,4 11,5 11,2 16,2 15,8 14 8 21 11 WSW 1021,5 37 0 0,0
13.08.2017 00:00:00 12,8 11,7 11,5 16,2 15,8 14 8 20 11 WSW 1021,5 43 0 0,0
12.08.2017 23:00:00 12,7 11,6 11,3 16,2 15,8 13 7 18 10 SW 1021,5 47 0 0,0
12.08.2017 22:00:00 13,4 11,6 11,9 16,3 15,8 11 6 31 17 SW 1021,0 59 0 0,0
12.08.2017 21:00:00 15,2 12,5 14,9 16,3 15,8 18 10 29 16 WSW 1020,6 60 29 0,0
12.08.2017 20:00:00 15,6 12,2 15,7 16,2 15,8 19 10 32 18 W 1020,4 60 1 0,0
12.08.2017 19:00:00 16,1 12,6 17,0 16,2 15,8 24 13 39 21 W 1020,3 52 22 0,0
12.08.2017 18:00:00 16,3 12,8 17,4 16,2 15,8 22 12 41 22 W 1019,9 56 21 0,0

tt = Température de l'air
td = dewpoint
tt 5cm = Température de l'air 5cm
tt -20cm = Température de l'air -20cm
tt -100cm = Température de l'air -100cm
ff = Vitesse du vent
fx = gusts
dd = Direction du vent
ppp = reduced air pressure
vv = visibility
sd = Ensoleillement
rr = Quantités de précipitations

stations d'obs. à proximité